STARLINK-1280, 45388

Orbit data source: Space-Track

STARLINK-1280, 45388 is a payload satellite owned by SpaceX/Seattle (US) in LEO that was launched on Wed, 18 Mar 2020 UTC via an FALCON 9 launch vehicle from the Air Force Eastern Test Range (AFETR). Payloads include a variety of satellites, spacecraft, and rockets equipped with specific instruments for various scientific and technological missions. These include communications satellites like Starlink; space stations such as the ISS; scientific satellites like the Hubble; Earth observation satellites from companies like Planet Labs, Umbra, and HawkEye 360; GPS; miniature CubeSats for education and research; and military/defense satellites.

Loading next visibility...
STARLINK-1280 details
Identifier
45388, 2020-019AE
Orbit
LEO
Last TLE update18 hours ago
Origin
Flag of USSpaceX/Seattle (US)
ManufacturerSpaceX/Seattle
MissionOperational Commercial Communications
Bus & MotorSTARLINK, Unknown motor
Mass260 kg wet, ~248 kg dry
Launch date (UTC)
2020-03-18 (5 years ago)
Launch vehicle
FALCON 9
Launch site
Air Force Eastern Test Range (AFETR)
Object type
Payload
Rocket body
Debris
Shape & HBRBox + 1 Pan, 8.86 m
Radar Cross Section13.562 m², Large (>1 m²)

Expand to show TLE details & history

TLE from 18 hours ago
0 STARLINK-1280
1 45388U 20019AE  24360.64876375  .00012393  00000-0  84951-3 0  9999
2 45388  53.0556 337.5479 0001381 104.0858 256.0284 15.06396896263552
Epoch: 2024-12-25T15:34Z
Definitive object data (Epoch: 2024-12-25T15:34:13.188Z)
Latitude-0.00004°
Longitude9.35343°
Altitude548.331 km
Speed7.589 km/s
True Right ascension22h 30m 11s
True Declination0° 00' 00"
Sunlit
Object was in daylight at TLE epoch
Visualization TLE readout
Latitude-20.84111°
Longitude-157.55202°
Altitude553.14 km
Speed7.585 km/s
Apparent Right ascension14h 33m 24s
Apparent Declination-62° 48' 12"
Sunlit
Object is in daylight
Visualization observer readout
Local Sidereal Time09:20:56
Azimuth148.94° SSE
Elevation-29.903°
Doppler factor1
Orbital elements
Apogee altitude548.448 km
Perigee altitude546.535 km
Semi-major axis6,925.629 km
Eccentricity0.0001381
Inclination53.0556°
RAAN337.5479°
Arg. of periapsis104.0858°
True anomaly256.01304°
Mean anomaly256.0284°
Eccentric anomaly256.02072°
Mean motion3.76578 °/min
BSTAR0.00084951
Orbital period95.6 mins
Loading maneuver chart data...
Loading historical data...
Loading historical data...
Loading historical data...
Loading historical data...
Loading historical data...
Loading historical data...
Loading historical data...

STARLINK-1280 Visibility forecast

Observer location: undefined°, undefined

Span
Click to sort rows by Start time (UTC) header in descending order
Start Az.
Max El. time (UTC)
Max El. Az.
Max El.
End time (UTC)
End Az.
6 mins2024-12-27 01:11:49.997Z227.212° WSW2024-12-27 01:14:49.997Z65.097° ENE44.285°2024-12-27 01:17:49.997Z51.119° ENE
4 mins2024-12-27 02:52:49.997Z304.808° NW2024-12-27 02:54:49.997Z344.79° N20.037°2024-12-27 02:56:49.997Z19.865° NNE
4 mins2024-12-27 06:14:49.997Z355.892° N2024-12-27 06:15:49.997Z15.367° NNE19.14°2024-12-27 06:18:49.997Z66.694° ENE
6 mins2024-12-27 07:53:49.997Z312.366° NW2024-12-27 07:55:49.997Z332.978° NNW44.176°2024-12-27 07:59:49.997Z128.543° SE
|